Simultaneous Nadir Overpasses (SNOs) Predictions

Prediction of SNOs between GOES-17 and NOAA-19 Satellite Orbit:

Table of predicted SNOs for the next 14.0 days since TLE Epoch: 4/11/2025
Index Date Time (GOES-17) GOES-17 Lat,Lon NOAA-19 Lat,Lon Distance(km) Time Diff (sec)
1 04/12/2025 16:24:45 0.04,-104.42 -0.82,-100.72 421.69 80
2 04/14/2025 04:58:47 -0.04,-104.37 -0.93,-108.26 444.28 80
3 04/15/2025 04:43:32 -0.04,-104.36 -0.21,-105.21 95.51 80
4 04/16/2025 04:33:35 -0.04,-104.36 0.46,-102.14 253.27 80
5 04/18/2025 16:49:30 0.03,-104.40 0.51,-106.58 248.16 80
6 04/19/2025 16:39:34 0.03,-104.40 -0.18,-103.52 100.56 80
7 04/20/2025 16:24:17 0.02,-104.39 -0.88,-100.46 449.27 80
8 04/22/2025 04:58:21 -0.02,-104.34 -0.88,-107.99 417.93 80
9 04/23/2025 04:45:45 -0.02,-104.33 -0.14,-104.94 69.16 80
10 04/24/2025 04:30:47 -0.02,-104.33 0.56,-101.88 279.78 62
